| time (UTC) | temp F | wind direction | speed MPH | gust MPH | rain 1hr in | rain 24hr in | rain mn in | humidity % | barometer mb |
| 20260506043806 | 69 | 161 | 1.0 | 3.0 | 0.00 | 0.00 | 0.00 | 86 | 1014.2 |
| 20260506043306 | 69 | 161 | 1.0 | 3.0 | 0.00 | 0.00 | 0.00 | 86 | 1014.2 |
| 20260506042805 | 69 | 0 | 0.0 | 3.0 | 0.00 | 0.00 | 0.00 | 86 | 1014.2 |
| 20260506042306 | 69 | 161 | 1.0 | 3.0 | 0.00 | 0.00 | 0.00 | 86 | 1014.2 |
| 20260506041806 | 69 | 0 | 0.0 | 2.0 | 0.00 | 0.00 | 0.00 | 86 | 1014.2 |
| 20260506041306 | 69 | 0 | 0.0 | 2.0 | 0.00 | 0.00 | 0.00 | 86 | 1014.2 |
| 20260506040313 | 69 | 0 | 0.0 | 1.0 | 0.00 | 0.00 | 0.00 | 86 | 1014.2 |
| 20260506035805 | 69 | 0 | 0.0 | 1.0 | 0.00 | 0.00 | 0.00 | 83 | 1014.6 |
| 20260506035306 | 69 | 0 | 0.0 | 1.0 | 0.00 | 0.00 | 0.00 | 83 | 1014.6 |
| 20260506034806 | 69 | 161 | 1.0 | 1.0 | 0.00 | 0.00 | 0.00 | 83 | 1014.6 |
| 20260506033806 | 69 | 0 | 0.0 | 1.0 | 0.00 | 0.00 | 0.00 | 83 | 1014.6 |
| 20260506033305 | 69 | 0 | 0.0 | 1.0 | 0.00 | 0.00 | 0.00 | 85 | 1014.6 |
| 20260506032805 | 69 | 0 | 0.0 | 1.0 | 0.00 | 0.00 | 0.00 | 86 | 1014.6 |
| 20260506032306 | 69 | 0 | 0.0 | 1.0 | 0.00 | 0.00 | 0.00 | 83 | 1014.6 |
| 20260506030806 | 69 | 0 | 0.0 | 1.0 | 0.00 | 0.00 | 0.00 | 83 | 1014.6 |
| 20260506030305 | 69 | 0 | 0.0 | 1.0 | 0.00 | 0.00 | 0.00 | 83 | 1014.6 |
| 20260506025805 | 70 | 0 | 0.0 | 1.0 | 0.00 | 0.00 | 0.00 | 81 | 1013.9 |
| 20260506025306 | 70 | 0 | 0.0 | 1.0 | 0.00 | 0.00 | 0.00 | 81 | 1013.9 |
| 20260506024806 | 70 | 0 | 0.0 | 1.0 | 0.00 | 0.00 | 0.00 | 81 | 1013.9 |
| 20260506024306 | 70 | 0 | 0.0 | 1.0 | 0.00 | 0.00 | 0.00 | 81 | 1013.9 |
| 20260506023805 | 70 | 0 | 0.0 | 1.0 | 0.00 | 0.00 | 0.00 | 81 | 1013.9 |
| 20260506023306 | 70 | 0 | 0.0 | 1.0 | 0.00 | 0.00 | 0.00 | 81 | 1013.9 |
| 20260506022805 | 70 | 0 | 0.0 | 2.0 | 0.00 | 0.00 | 0.00 | 81 | 1013.9 |
| 20260506022306 | 70 | 0 | 0.0 | 2.0 | 0.00 | 0.00 | 0.00 | 81 | 1013.9 |
| 20260506021806 | 70 | 0 | 0.0 | 3.0 | 0.00 | 0.00 | 0.00 | 82 | 1014.1 |
| 20260506021306 | 70 | 0 | 0.0 | 3.0 | 0.00 | 0.00 | 0.00 | 83 | 1014.1 |
| 20260506020805 | 70 | 0 | 1.0 | 3.0 | 0.00 | 0.00 | 0.00 | 81 | 1013.9 |
| 20260506020305 | 70 | 161 | 1.0 | 2.0 | 0.00 | 0.00 | 0.00 | 81 | 1013.9 |
| 20260506015805 | 72 | 0 | 0.0 | 6.0 | 0.00 | 0.00 | 0.00 | 84 | 1013.9 |
| 20260506015306 | 72 | 161 | 2.0 | 6.0 | 0.00 | 0.00 | 0.00 | 73 | 1013.9 |
| 20260506014805 | 72 | 161 | 1.0 | 6.0 | 0.00 | 0.00 | 0.00 | 73 | 1013.9 |
| 20260506013805 | 72 | 169 | 2.0 | 5.0 | 0.00 | 0.00 | 0.00 | 73 | 1013.9 |
| 20260506013305 | 72 | 169 | 1.0 | 3.0 | 0.00 | 0.00 | 0.00 | 73 | 1013.9 |
| 20260506012805 | 72 | 169 | 1.0 | 3.0 | 0.00 | 0.00 | 0.00 | 73 | 1013.9 |
| 20260506012308 | 72 | 0 | 0.0 | 5.0 | 0.00 | 0.00 | 0.00 | 73 | 1013.9 |
| 20260506010805 | 72 | 166 | 1.0 | 5.0 | 0.00 | 0.00 | 0.00 | 75 | 1014.0 |
| 20260506010305 | 72 | 170 | 2.0 | 6.0 | 0.00 | 0.00 | 0.00 | 77 | 1014.1 |
| 20260506005805 | 72 | 170 | 2.0 | 6.0 | 0.00 | 0.00 | 0.00 | 70 | 1014.2 |
| 20260506005306 | 73 | 170 | 2.0 | 6.0 | 0.00 | 0.00 | 0.00 | 81 | 1013.9 |
| 20260506004806 | 73 | 169 | 2.0 | 7.0 | 0.00 | 0.00 | 0.00 | 70 | 1013.9 |
| 20260506004305 | 73 | 175 | 2.0 | 7.0 | 0.00 | 0.00 | 0.00 | 70 | 1013.9 |
| 20260506003805 | 73 | 171 | 2.0 | 7.0 | 0.00 | 0.00 | 0.00 | 70 | 1013.9 |
| 20260506002306 | 73 | 161 | 2.0 | 8.0 | 0.00 | 0.00 | 0.00 | 70 | 1013.9 |
| 20260506001805 | 73 | 157 | 6.0 | 8.0 | 0.00 | 0.00 | 0.00 | 70 | 1013.9 |
| 20260506001305 | 73 | 141 | 2.0 | 10.0 | 0.00 | 0.00 | 0.00 | 70 | 1013.9 |
| 20260506000805 | 73 | 166 | 6.0 | 10.0 | 0.00 | 0.00 | 0.00 | 70 | 1013.9 |
| 20260505235805 | 76 | 161 | 7.0 | 9.0 | 0.00 | 0.00 | 0.00 | 62 | 1013.5 |
| 20260505235305 | 76 | 171 | 5.0 | 9.0 | 0.00 | 0.00 | 0.00 | 62 | 1013.6 |
| 20260505234806 | 75 | 173 | 3.0 | 7.0 | 0.00 | 0.00 | 0.00 | 62 | 1013.7 |
| 20260505234306 | 74 | 170 | 2.0 | 7.0 | 0.00 | 0.00 | 0.00 | 69 | 1013.8 |
| 20260505233805 | 76 | 159 | 2.0 | 7.0 | 0.00 | 0.00 | 0.00 | 62 | 1013.6 |
| 20260505233305 | 76 | 167 | 3.0 | 6.0 | 0.00 | 0.00 | 0.00 | 62 | 1013.6 |
| 20260505232805 | 76 | 167 | 3.0 | 10.0 | 0.00 | 0.00 | 0.00 | 75 | 1013.6 |
| 20260505232306 | 76 | 161 | 2.0 | 10.0 | 0.00 | 0.00 | 0.00 | 62 | 1013.5 |
| 20260505231805 | 76 | 148 | 2.0 | 10.0 | 0.00 | 0.00 | 0.00 | 62 | 1013.5 |
| 20260505231305 | 76 | 180 | 1.0 | 12.0 | 0.00 | 0.00 | 0.00 | 62 | 1013.5 |
| 20260505230805 | 76 | 167 | 3.0 | 12.0 | 0.00 | 0.00 | 0.00 | 62 | 1013.5 |
| 20260505230305 | 76 | 142 | 2.0 | 12.0 | 0.00 | 0.00 | 0.00 | 62 | 1013.5 |
| 20260505225805 | 78 | 169 | 7.0 | 12.0 | 0.00 | 0.00 | 0.00 | 55 | 1013.5 |
| 20260505225306 | 78 | 165 | 2.0 | 9.0 | 0.00 | 0.00 | 0.00 | 55 | 1013.5 |
| 20260505224805 | 78 | 195 | 3.0 | 9.0 | 0.00 | 0.00 | 0.00 | 55 | 1013.5 |
| 20260505224305 | 78 | 172 | 2.0 | 9.0 | 0.00 | 0.00 | 0.00 | 55 | 1013.5 |
| 20260505223805 | 78 | 234 | 1.0 | 9.0 | 0.00 | 0.00 | 0.00 | 55 | 1013.6 |
| 20260505223305 | 78 | 157 | 2.0 | 7.0 | 0.00 | 0.00 | 0.00 | 55 | 1013.6 |
| 20260505222805 | 78 | 166 | 1.0 | 12.0 | 0.00 | 0.00 | 0.00 | 55 | 1013.6 |
| 20260505222306 | 77 | 257 | 3.0 | 12.0 | 0.00 | 0.00 | 0.00 | 58 | 1013.7 |
| 20260505221805 | 77 | 198 | 5.0 | 12.0 | 0.00 | 0.00 | 0.00 | 55 | 1013.5 |
| 20260505221305 | 77 | 162 | 5.0 | 12.0 | 0.00 | 0.00 | 0.00 | 55 | 1013.7 |
| 20260505220805 | 77 | 177 | 7.0 | 9.0 | 0.00 | 0.00 | 0.00 | 63 | 1013.5 |
| 20260505220305 | 78 | 217 | 5.0 | 13.0 | 0.00 | 0.00 | 0.00 | 55 | 1013.5 |
| 20260505215805 | 79 | 147 | 2.0 | 13.0 | 0.00 | 0.00 | 0.00 | 54 | 1013.2 |
| 20260505215305 | 79 | 153 | 4.0 | 14.0 | 0.00 | 0.00 | 0.00 | 54 | 1013.2 |
| 20260505214305 | 79 | 173 | 5.0 | 12.0 | 0.00 | 0.00 | 0.00 | 54 | 1013.2 |
| 20260505213805 | 79 | 159 | 2.0 | 12.0 | 0.00 | 0.00 | 0.00 | 54 | 1013.2 |
| 20260505213304 | 79 | 131 | 3.0 | 12.0 | 0.00 | 0.00 | 0.00 | 54 | 1013.2 |
| 20260505212804 | 79 | 158 | 3.0 | 13.0 | 0.00 | 0.00 | 0.00 | 54 | 1013.2 |
| 20260505212306 | 79 | 153 | 3.0 | 13.0 | 0.00 | 0.00 | 0.00 | 54 | 1013.2 |
| 20260505210805 | 79 | 206 | 3.0 | 12.0 | 0.00 | 0.00 | 0.00 | 54 | 1013.3 |
| 20260505210305 | 78 | 174 | 7.0 | 12.0 | 0.00 | 0.00 | 0.00 | 54 | 1013.6 |
| 20260505205804 | 79 | 157 | 6.0 | 12.0 | 0.00 | 0.00 | 0.00 | 52 | 1014.2 |
| 20260505205305 | 79 | 202 | 3.0 | 12.0 | 0.00 | 0.00 | 0.00 | 67 | 1014.2 |
| 20260505204805 | 79 | 142 | 3.0 | 12.0 | 0.00 | 0.00 | 0.00 | 52 | 1014.2 |
| 20260505203804 | 79 | 109 | 3.0 | 12.0 | 0.00 | 0.00 | 0.00 | 52 | 1014.2 |
| 20260505203305 | 79 | 198 | 1.0 | 13.0 | 0.00 | 0.00 | 0.00 | 52 | 1014.2 |
| 20260505202805 | 79 | 164 | 2.0 | 13.0 | 0.00 | 0.00 | 0.00 | 52 | 1014.2 |
| 20260505202307 | 79 | 232 | 2.0 | 13.0 | 0.00 | 0.00 | 0.00 | 52 | 1014.2 |
| 20260505201805 | 79 | 180 | 5.0 | 12.0 | 0.00 | 0.00 | 0.00 | 52 | 1014.2 |
| 20260505201305 | 79 | 180 | 1.0 | 12.0 | 0.00 | 0.00 | 0.00 | 52 | 1014.2 |
| 20260505200805 | 79 | 168 | 3.0 | 12.0 | 0.00 | 0.00 | 0.00 | 52 | 1014.2 |
| 20260505200305 | 79 | 163 | 6.0 | 12.0 | 0.00 | 0.00 | 0.00 | 52 | 1014.2 |
| 20260505195805 | 80 | 159 | 9.0 | 12.0 | 0.00 | 0.00 | 0.00 | 51 | 1014.6 |
| 20260505195305 | 80 | 150 | 7.0 | 12.0 | 0.00 | 0.00 | 0.00 | 50 | 1014.6 |
| 20260505194805 | 80 | 115 | 6.0 | 10.0 | 0.00 | 0.00 | 0.00 | 65 | 1014.6 |
| 20260505194305 | 80 | 148 | 4.0 | 9.0 | 0.00 | 0.00 | 0.00 | 50 | 1014.6 |
| 20260505193805 | 80 | 213 | 2.0 | 10.0 | 0.00 | 0.00 | 0.00 | 50 | 1014.6 |
| 20260505193305 | 80 | 158 | 3.0 | 10.0 | 0.00 | 0.00 | 0.00 | 50 | 1014.6 |
| 20260505192805 | 80 | 140 | 5.0 | 10.0 | 0.00 | 0.00 | 0.00 | 53 | 1014.6 |
| 20260505192306 | 80 | 238 | 2.0 | 10.0 | 0.00 | 0.00 | 0.00 | 50 | 1014.6 |
| 20260505191804 | 80 | 246 | 3.0 | 10.0 | 0.00 | 0.00 | 0.00 | 50 | 1014.6 |
| 20260505190805 | 80 | 126 | 1.0 | 9.0 | 0.00 | 0.00 | 0.00 | 50 | 1014.6 |
| 20260505190305 | 80 | 220 | 6.0 | 12.0 | 0.00 | 0.00 | 0.00 | 50 | 1014.6 |
| 20260505185804 | 79 | 192 | 2.0 | 12.0 | 0.00 | 0.00 | 0.00 | 48 | 1014.9 |
| 20260505184805 | 79 | 160 | 9.0 | 12.0 | 0.00 | 0.00 | 0.00 | 51 | 1014.9 |
| 20260505184304 | 79 | 205 | 6.0 | 12.0 | 0.00 | 0.00 | 0.00 | 48 | 1014.9 |
| 20260505183805 | 79 | 213 | 3.0 | 12.0 | 0.00 | 0.00 | 0.00 | 48 | 1014.9 |
| 20260505183305 | 80 | 185 | 3.0 | 12.0 | 0.00 | 0.00 | 0.00 | 62 | 1014.9 |
| 20260505182805 | 79 | 236 | 3.0 | 10.0 | 0.00 | 0.00 | 0.00 | 48 | 1014.9 |
| 20260505182306 | 79 | 162 | 2.0 | 8.0 | 0.00 | 0.00 | 0.00 | 48 | 1014.9 |
| 20260505181805 | 79 | 163 | 3.0 | 8.0 | 0.00 | 0.00 | 0.00 | 48 | 1014.9 |
| 20260505181305 | 79 | 147 | 6.0 | 9.0 | 0.00 | 0.00 | 0.00 | 48 | 1014.9 |
| 20260505180305 | 79 | 237 | 3.0 | 12.0 | 0.00 | 0.00 | 0.00 | 48 | 1014.9 |
| 20260505175805 | 79 | 206 | 2.0 | 12.0 | 0.00 | 0.00 | 0.00 | 54 | 1015.2 |
| 20260505175305 | 79 | 116 | 8.0 | 9.0 | 0.00 | 0.00 | 0.00 | 54 | 1015.2 |
| 20260505174305 | 79 | 148 | 6.0 | 14.0 | 0.00 | 0.00 | 0.00 | 60 | 1015.2 |
| 20260505173804 | 79 | 146 | 6.0 | 14.0 | 0.00 | 0.00 | 0.00 | 55 | 1015.2 |
| 20260505173304 | 79 | 221 | 3.0 | 14.0 | 0.00 | 0.00 | 0.00 | 54 | 1015.2 |
| 20260505172805 | 79 | 190 | 3.0 | 12.0 | 0.00 | 0.00 | 0.00 | 65 | 1015.2 |
| 20260505172306 | 79 | 182 | 1.0 | 12.0 | 0.00 | 0.00 | 0.00 | 54 | 1015.2 |
| 20260505171805 | 79 | 188 | 2.0 | 12.0 | 0.00 | 0.00 | 0.00 | 57 | 1015.2 |
| 20260505171304 | 79 | 222 | 5.0 | 10.0 | 0.00 | 0.00 | 0.00 | 54 | 1015.2 |
| 20260505170805 | 79 | 157 | 5.0 | 10.0 | 0.00 | 0.00 | 0.00 | 54 | 1015.2 |
| 20260505170304 | 79 | 161 | 3.0 | 10.0 | 0.00 | 0.00 | 0.00 | 54 | 1015.2 |
| 20260505165804 | 77 | 195 | 3.0 | 10.0 | 0.00 | 0.00 | 0.00 | 53 | 1015.2 |
| 20260505165306 | 77 | 184 | 2.0 | 10.0 | 0.00 | 0.00 | 0.00 | 53 | 1015.2 |
| 20260505164804 | 77 | 223 | 1.0 | 10.0 | 0.00 | 0.00 | 0.00 | 53 | 1015.2 |
| 20260505164304 | 77 | 117 | 2.0 | 10.0 | 0.00 | 0.00 | 0.00 | 53 | 1015.2 |
| 20260505163804 | 77 | 130 | 3.0 | 10.0 | 0.00 | 0.00 | 0.00 | 54 | 1015.2 |
| 20260505163305 | 77 | 150 | 3.0 | 12.0 | 0.00 | 0.00 | 0.00 | 53 | 1015.2 |
| 20260505162804 | 77 | 224 | 3.0 | 12.0 | 0.00 | 0.00 | 0.00 | 65 | 1015.2 |
| 20260505162306 | 77 | 181 | 3.0 | 12.0 | 0.00 | 0.00 | 0.00 | 53 | 1015.2 |
| 20260505161805 | 77 | 217 | 2.0 | 12.0 | 0.00 | 0.00 | 0.00 | 53 | 1015.2 |
| 20260505160805 | 77 | 212 | 3.0 | 12.0 | 0.00 | 0.00 | 0.00 | 56 | 1015.2 |
| 20260505160304 | 77 | 216 | 3.0 | 12.0 | 0.00 | 0.00 | 0.00 | 53 | 1015.2 |
| 20260505153304 | 75 | 208 | 2.0 | 12.0 | 0.00 | 0.00 | 0.00 | 57 | 1014.6 |
| 20260505152805 | 75 | 164 | 5.0 | 12.0 | 0.00 | 0.00 | 0.00 | 58 | 1014.7 |
| 20260505152305 | 76 | 157 | 2.0 | 12.0 | 0.00 | 0.00 | 0.00 | 62 | 1014.9 |
| 20260505151805 | 76 | 4 | 3.0 | 12.0 | 0.00 | 0.00 | 0.00 | 64 | 1015.2 |
| 20260505151305 | 75 | 173 | 5.0 | 12.0 | 0.00 | 0.00 | 0.00 | 57 | 1014.6 |
| 20260505150805 | 75 | 146 | 5.0 | 12.0 | 0.00 | 0.00 | 0.00 | 57 | 1014.6 |
| 20260505150304 | 75 | 167 | 8.0 | 12.0 | 0.00 | 0.00 | 0.00 | 57 | 1014.6 |
| 20260505130304 | 66 | 0 | 0.0 | 3.0 | 0.00 | 0.00 | 0.00 | 78 | 1014.9 |
| 20260505124304 | 61 | 0 | 0.0 | 2.0 | 0.00 | 0.00 | 0.00 | 86 | 1014.6 |
| 20260505123804 | 60 | 0 | 0.0 | 3.0 | 0.00 | 0.00 | 0.00 | 86 | 1014.6 |
| 20260505123305 | 58 | 0 | 0.0 | 3.0 | 0.00 | 0.00 | 0.00 | 86 | 1014.6 |
| 20260505122805 | 58 | 261 | 1.0 | 3.0 | 0.00 | 0.00 | 0.00 | 86 | 1014.6 |
| 20260505122305 | 58 | 0 | 0.0 | 3.0 | 0.00 | 0.00 | 0.00 | 86 | 1014.6 |
| 20260505120804 | 58 | 0 | 0.0 | 3.0 | 0.00 | 0.00 | 0.00 | 86 | 1014.6 |
| 20260505120305 | 58 | 155 | 3.0 | 3.0 | 0.00 | 0.00 | 0.00 | 86 | 1014.6 |
| 20260505115803 | 56 | 158 | 1.0 | 2.0 | 0.00 | 0.00 | 0.00 | 90 | 1013.9 |
| 20260505115305 | 56 | 0 | 0.0 | 1.0 | 0.00 | 0.00 | 0.00 | 90 | 1013.9 |
| 20260505114804 | 56 | 0 | 0.0 | 0.0 | 0.00 | 0.00 | 0.00 | 90 | 1013.9 |
| 20260505114304 | 56 | 0 | 0.0 | 0.0 | 0.00 | 0.00 | 0.00 | 91 | 1014.1 |
| 20260505113805 | 55 | 0 | 0.0 | 0.0 | 0.00 | 0.00 | 0.00 | 91 | 1014.3 |
| 20260505113305 | 56 | 0 | 0.0 | 0.0 | 0.00 | 0.00 | 0.00 | 90 | 1013.9 |
| 20260505112305 | 56 | 0 | 0.0 | 0.0 | 0.00 | 0.00 | 0.00 | 90 | 1013.9 |
| 20260505111804 | 56 | 0 | 0.0 | 0.0 | 0.00 | 0.00 | 0.00 | 90 | 1013.9 |
| 20260505111304 | 56 | 0 | 0.0 | 0.0 | 0.00 | 0.00 | 0.00 | 90 | 1013.9 |
| 20260505110803 | 56 | 0 | 0.0 | 0.0 | 0.00 | 0.00 | 0.00 | 90 | 1013.9 |
| 20260505101804 | 55 | 0 | 0.0 | 0.0 | 0.00 | 0.00 | 0.00 | 89 | 1013.9 |
| 20260505101304 | 55 | 0 | 0.0 | 0.0 | 0.00 | 0.00 | 0.00 | 89 | 1013.9 |
| 20260505100803 | 54 | 0 | 0.0 | 0.0 | 0.00 | 0.00 | 0.00 | 92 | 1013.9 |
| 20260505100303 | 54 | 0 | 0.0 | 0.0 | 0.00 | 0.00 | 0.00 | 92 | 1014.0 |
| 20260505095803 | 54 | 0 | 0.0 | 0.0 | 0.00 | 0.00 | 0.00 | 91 | 1014.1 |
| 20260505095305 | 54 | 0 | 0.0 | 0.0 | 0.00 | 0.00 | 0.00 | 92 | 1013.9 |
| 20260505094306 | 53 | 0 | 0.0 | 0.0 | 0.00 | 0.00 | 0.00 | 92 | 1013.9 |
| 20260505093806 | 54 | 0 | 0.0 | 0.0 | 0.00 | 0.00 | 0.00 | 92 | 1013.9 |
| 20260505092305 | 54 | 0 | 0.0 | 0.0 | 0.00 | 0.00 | 0.00 | 92 | 1013.9 |
| 20260505091806 | 54 | 0 | 0.0 | 0.0 | 0.00 | 0.00 | 0.00 | 92 | 1013.9 |
| 20260505091305 | 54 | 0 | 0.0 | 0.0 | 0.00 | 0.00 | 0.00 | 92 | 1013.9 |
| 20260505090805 | 54 | 0 | 0.0 | 0.0 | 0.00 | 0.00 | 0.00 | 92 | 1013.9 |
| 20260505090305 | 54 | 0 | 0.0 | 0.0 | 0.00 | 0.00 | 0.00 | 92 | 1013.9 |
| 20260505085806 | 55 | 0 | 0.0 | 0.0 | 0.00 | 0.00 | 0.00 | 89 | 1013.9 |
| 20260505085306 | 55 | 0 | 0.0 | 0.0 | 0.00 | 0.00 | 0.00 | 89 | 1013.9 |
| 20260505084806 | 55 | 0 | 0.0 | 0.0 | 0.00 | 0.00 | 0.00 | 89 | 1013.9 |
| 20260505084306 | 54 | 0 | 0.0 | 0.0 | 0.00 | 0.00 | 0.00 | 89 | 1013.9 |
| 20260505083806 | 54 | 0 | 0.0 | 0.0 | 0.00 | 0.00 | 0.00 | 89 | 1013.9 |
| 20260505083306 | 54 | 0 | 0.0 | 0.0 | 0.00 | 0.00 | 0.00 | 89 | 1013.9 |
| 20260505082306 | 55 | 0 | 0.0 | 0.0 | 0.00 | 0.00 | 0.00 | 89 | 1013.9 |
| 20260505081806 | 55 | 0 | 0.0 | 0.0 | 0.00 | 0.00 | 0.00 | 89 | 1013.9 |
| 20260505081306 | 55 | 0 | 0.0 | 0.0 | 0.00 | 0.00 | 0.00 | 89 | 1013.9 |
| 20260505080805 | 55 | 0 | 0.0 | 0.0 | 0.00 | 0.00 | 0.00 | 89 | 1013.9 |
| 20260505080306 | 55 | 0 | 0.0 | 0.0 | 0.00 | 0.00 | 0.00 | 89 | 1013.9 |
| 20260505075805 | 56 | 0 | 0.0 | 0.0 | 0.00 | 0.00 | 0.00 | 83 | 1014.2 |
| 20260505075306 | 56 | 0 | 0.0 | 0.0 | 0.00 | 0.00 | 0.00 | 83 | 1014.2 |
| 20260505074805 | 56 | 0 | 0.0 | 0.0 | 0.00 | 0.00 | 0.00 | 83 | 1014.2 |
| 20260505074306 | 56 | 0 | 0.0 | 0.0 | 0.00 | 0.00 | 0.00 | 83 | 1014.2 |
| 20260505073806 | 56 | 0 | 0.0 | 0.0 | 0.00 | 0.00 | 0.00 | 83 | 1014.2 |
| 20260505073306 | 56 | 0 | 0.0 | 0.0 | 0.00 | 0.00 | 0.00 | 83 | 1014.2 |
| 20260505072806 | 55 | 0 | 0.0 | 0.0 | 0.00 | 0.00 | 0.00 | 85 | 1014.2 |
| 20260505072306 | 55 | 0 | 0.0 | 0.0 | 0.00 | 0.00 | 0.00 | 86 | 1014.2 |
| 20260505071806 | 56 | 0 | 0.0 | 0.0 | 0.00 | 0.00 | 0.00 | 83 | 1014.2 |
| 20260505070305 | 56 | 0 | 0.0 | 0.0 | 0.00 | 0.00 | 0.00 | 83 | 1014.2 |
| 20260505065305 | 58 | 0 | 0.0 | 0.0 | 0.00 | 0.00 | 0.00 | 77 | 1014.9 |
| 20260505064806 | 58 | 0 | 0.0 | 0.0 | 0.00 | 0.00 | 0.00 | 77 | 1014.9 |
| 20260505063805 | 58 | 0 | 0.0 | 0.0 | 0.00 | 0.00 | 0.00 | 77 | 1014.9 |
| 20260505063306 | 58 | 0 | 0.0 | 0.0 | 0.00 | 0.00 | 0.00 | 77 | 1014.9 |
| 20260505062805 | 58 | 0 | 0.0 | 0.0 | 0.00 | 0.00 | 0.00 | 77 | 1014.9 |
| 20260505062306 | 58 | 0 | 0.0 | 0.0 | 0.00 | 0.00 | 0.00 | 77 | 1014.9 |
| 20260505061806 | 58 | 0 | 0.0 | 0.0 | 0.00 | 0.00 | 0.00 | 77 | 1014.9 |
| 20260505061305 | 58 | 0 | 0.0 | 0.0 | 0.00 | 0.00 | 0.00 | 78 | 1014.9 |
| 20260505060806 | 57 | 0 | 0.0 | 0.0 | 0.00 | 0.00 | 0.00 | 80 | 1014.9 |
| 20260505060306 | 57 | 0 | 0.0 | 0.0 | 0.00 | 0.00 | 0.00 | 82 | 1014.9 |
| 20260505055805 | 59 | 0 | 0.0 | 0.0 | 0.00 | 0.00 | 0.00 | 74 | 1015.2 |
| 20260505055305 | 59 | 0 | 0.0 | 0.0 | 0.00 | 0.00 | 0.00 | 75 | 1015.2 |
| 20260505054805 | 59 | 0 | 0.0 | 0.0 | 0.00 | 0.00 | 0.00 | 74 | 1015.2 |
| 20260505054305 | 59 | 0 | 0.0 | 0.0 | 0.00 | 0.00 | 0.00 | 74 | 1015.2 |
| 20260505053305 | 59 | 0 | 0.0 | 0.0 | 0.00 | 0.00 | 0.00 | 74 | 1015.2 |
| 20260505052806 | 59 | 0 | 0.0 | 0.0 | 0.00 | 0.00 | 0.00 | 74 | 1015.2 |
| 20260505051305 | 59 | 0 | 0.0 | 0.0 | 0.00 | 0.00 | 0.00 | 74 | 1015.2 |
| 20260505050305 | 59 | 0 | 0.0 | 0.0 | 0.00 | 0.00 | 0.00 | 74 | 1015.2 |